| time (UTC) | temp F | wind direction | speed MPH | gust MPH | rain 1hr in | rain 24hr in | rain mn in | humidity % | barometer mb |
| 20260507164503 | 65 | 337 | 4.0 | 13.0 | 0.00 | 0.00 | 0.00 | 60 | 1016.7 |
| 20260507163605 | 66 | 317 | 5.0 | 12.0 | 0.00 | 0.00 | 0.00 | 60 | 1016.5 |
| 20260507162704 | 66 | 316 | 4.0 | 12.0 | 0.00 | 0.00 | 0.00 | 60 | 1016.4 |
| 20260507161803 | 66 | 323 | 3.0 | 11.0 | 0.00 | 0.00 | 0.00 | 60 | 1016.4 |
| 20260507160903 | 67 | 336 | 4.0 | 10.0 | 0.00 | 0.00 | 0.00 | 59 | 1016.4 |
| 20260507160004 | 68 | 1 | 2.0 | 10.0 | 0.00 | 0.00 | 0.00 | 59 | 1016.3 |
| 20260507155403 | 68 | 340 | 4.0 | 9.0 | 0.00 | 0.00 | 0.00 | 58 | 1016.3 |
| 20260507154503 | 69 | 329 | 5.0 | 13.0 | 0.00 | 0.00 | 0.00 | 57 | 1016.2 |
| 20260507153603 | 69 | 340 | 4.0 | 11.0 | 0.00 | 0.00 | 0.00 | 56 | 1016.2 |
| 20260507152703 | 70 | 315 | 4.0 | 11.0 | 0.00 | 0.00 | 0.00 | 55 | 1016.2 |
| 20260507152016 | 71 | 322 | 4.0 | 12.0 | 0.00 | 0.00 | 0.00 | 55 | 1016.3 |
| 20260507151113 | 71 | 331 | 4.0 | 11.0 | 0.00 | 0.00 | 0.00 | 55 | 1016.3 |
| 20260507150216 | 71 | 329 | 5.0 | 11.0 | 0.00 | 0.00 | 0.00 | 53 | 1016.3 |
| 20260507145403 | 72 | 326 | 4.0 | 12.0 | 0.00 | 0.00 | 0.00 | 53 | 1016.2 |
| 20260507144503 | 72 | 327 | 4.0 | 15.0 | 0.00 | 0.00 | 0.00 | 53 | 1016.2 |
| 20260507143603 | 73 | 327 | 5.0 | 11.0 | 0.00 | 0.00 | 0.00 | 52 | 1016.3 |
| 20260507142703 | 73 | 330 | 5.0 | 13.0 | 0.00 | 0.00 | 0.00 | 51 | 1016.2 |
| 20260507141803 | 73 | 326 | 5.0 | 13.0 | 0.00 | 0.00 | 0.00 | 51 | 1016.4 |
| 20260507140903 | 74 | 331 | 4.0 | 11.0 | 0.00 | 0.00 | 0.00 | 50 | 1016.3 |
| 20260507140004 | 74 | 335 | 5.0 | 13.0 | 0.00 | 0.00 | 0.00 | 49 | 1016.4 |
| 20260507135403 | 75 | 336 | 5.0 | 13.0 | 0.00 | 0.00 | 0.00 | 49 | 1016.4 |
| 20260507134504 | 75 | 341 | 5.0 | 13.0 | 0.00 | 0.00 | 0.00 | 49 | 1016.3 |
| 20260507133603 | 75 | 355 | 7.0 | 14.0 | 0.00 | 0.00 | 0.00 | 49 | 1016.3 |
| 20260507132915 | 76 | 352 | 6.0 | 11.0 | 0.00 | 0.00 | 0.00 | 48 | 1016.4 |
| 20260507131805 | 77 | 352 | 4.0 | 11.0 | 0.00 | 0.00 | 0.00 | 46 | 1016.5 |
| 20260507130903 | 77 | 354 | 5.0 | 12.0 | 0.00 | 0.00 | 0.00 | 45 | 1016.4 |
| 20260507130006 | 78 | 17 | 2.0 | 8.0 | 0.00 | 0.00 | 0.00 | 38 | 1016.5 |
| 20260507125403 | 77 | 24 | 2.0 | 8.0 | 0.00 | 0.00 | 0.00 | 32 | 1016.7 |
| 20260507124505 | 77 | 40 | 1.0 | 5.0 | 0.00 | 0.00 | 0.00 | 32 | 1016.6 |
| 20260507123603 | 77 | 21 | 3.0 | 8.0 | 0.00 | 0.00 | 0.00 | 31 | 1016.8 |
| 20260507122705 | 77 | 10 | 3.0 | 8.0 | 0.00 | 0.00 | 0.00 | 32 | 1016.8 |
| 20260507121803 | 77 | 35 | 2.0 | 7.0 | 0.00 | 0.00 | 0.00 | 32 | 1016.8 |
| 20260507120903 | 77 | 33 | 1.0 | 6.0 | 0.00 | 0.00 | 0.00 | 32 | 1017.0 |
| 20260507120006 | 76 | 57 | 2.0 | 9.0 | 0.00 | 0.00 | 0.00 | 32 | 1017.0 |
| 20260507115405 | 76 | 85 | 2.0 | 9.0 | 0.00 | 0.00 | 0.00 | 32 | 1017.0 |
| 20260507114505 | 76 | 33 | 3.0 | 8.0 | 0.00 | 0.00 | 0.00 | 32 | 1017.1 |
| 20260507113605 | 76 | 39 | 2.0 | 8.0 | 0.00 | 0.00 | 0.00 | 32 | 1017.1 |
| 20260507112703 | 76 | 69 | 2.0 | 6.0 | 0.00 | 0.00 | 0.00 | 32 | 1017.5 |
| 20260507112019 | 76 | 33 | 3.0 | 8.0 | 0.00 | 0.00 | 0.00 | 31 | 1017.4 |
| 20260507111116 | 76 | 48 | 2.0 | 8.0 | 0.00 | 0.00 | 0.00 | 32 | 1017.5 |
| 20260507110218 | 76 | 30 | 3.0 | 7.0 | 0.00 | 0.00 | 0.00 | 33 | 1017.7 |
| 20260507105615 | 76 | 27 | 2.0 | 7.0 | 0.00 | 0.00 | 0.00 | 33 | 1017.8 |
| 20260507104505 | 75 | 26 | 3.0 | 7.0 | 0.00 | 0.00 | 0.00 | 33 | 1017.9 |
| 20260507103603 | 74 | 23 | 2.0 | 7.0 | 0.00 | 0.00 | 0.00 | 35 | 1017.9 |
| 20260507102917 | 74 | 50 | 2.0 | 7.0 | 0.00 | 0.00 | 0.00 | 33 | 1017.9 |
| 20260507101805 | 74 | 31 | 3.0 | 7.0 | 0.00 | 0.00 | 0.00 | 33 | 1017.9 |
| 20260507100905 | 74 | 33 | 3.0 | 6.0 | 0.00 | 0.00 | 0.00 | 34 | 1018.2 |
| 20260507100005 | 73 | 11 | 2.0 | 6.0 | 0.00 | 0.00 | 0.00 | 34 | 1018.3 |
| 20260507095403 | 72 | 12 | 3.0 | 6.0 | 0.00 | 0.00 | 0.00 | 35 | 1018.4 |
| 20260507094505 | 72 | 26 | 2.0 | 8.0 | 0.00 | 0.00 | 0.00 | 36 | 1018.5 |
| 20260507093604 | 71 | 18 | 2.0 | 6.0 | 0.00 | 0.00 | 0.00 | 36 | 1018.7 |
| 20260507092705 | 71 | 10 | 2.0 | 7.0 | 0.00 | 0.00 | 0.00 | 37 | 1018.7 |
| 20260507091805 | 71 | 17 | 2.0 | 7.0 | 0.00 | 0.00 | 0.00 | 36 | 1018.9 |
| 20260507090905 | 70 | 43 | 2.0 | 7.0 | 0.00 | 0.00 | 0.00 | 39 | 1018.9 |
| 20260507090006 | 70 | 39 | 2.0 | 7.0 | 0.00 | 0.00 | 0.00 | 39 | 1019.0 |
| 20260507085404 | 70 | 29 | 3.0 | 7.0 | 0.00 | 0.00 | 0.00 | 40 | 1019.0 |
| 20260507084505 | 69 | 34 | 2.0 | 6.0 | 0.00 | 0.00 | 0.00 | 42 | 1019.1 |
| 20260507083816 | 69 | 48 | 1.0 | 6.0 | 0.00 | 0.00 | 0.00 | 42 | 1019.1 |
| 20260507082913 | 69 | 53 | 1.0 | 6.0 | 0.00 | 0.00 | 0.00 | 43 | 1019.2 |
| 20260507081805 | 68 | 41 | 1.0 | 7.0 | 0.00 | 0.00 | 0.00 | 46 | 1019.3 |
| 20260507080903 | 67 | 8 | 1.0 | 5.0 | 0.00 | 0.00 | 0.00 | 46 | 1019.5 |
| 20260507080006 | 67 | 19 | 2.0 | 7.0 | 0.00 | 0.00 | 0.00 | 47 | 1019.5 |
| 20260507075404 | 67 | 56 | 2.0 | 6.0 | 0.00 | 0.00 | 0.00 | 47 | 1019.5 |
| 20260507074505 | 66 | 43 | 2.0 | 8.0 | 0.00 | 0.00 | 0.00 | 49 | 1019.5 |
| 20260507073604 | 66 | 14 | 3.0 | 7.0 | 0.00 | 0.00 | 0.00 | 48 | 1019.4 |
| 20260507072919 | 66 | 12 | 1.0 | 6.0 | 0.00 | 0.00 | 0.00 | 49 | 1019.3 |
| 20260507072016 | 65 | 29 | 2.0 | 6.0 | 0.00 | 0.00 | 0.00 | 49 | 1019.5 |
| 20260507071114 | 65 | 12 | 2.0 | 6.0 | 0.00 | 0.00 | 0.00 | 50 | 1019.6 |
| 20260507070010 | 64 | 76 | 2.0 | 8.0 | 0.00 | 0.00 | 0.00 | 51 | 1019.6 |
| 20260507065403 | 64 | 48 | 2.0 | 7.0 | 0.00 | 0.00 | 0.00 | 51 | 1019.6 |
| 20260507064505 | 65 | 49 | 2.0 | 6.0 | 0.00 | 0.00 | 0.00 | 50 | 1019.5 |
| 20260507063603 | 64 | 50 | 1.0 | 5.0 | 0.00 | 0.00 | 0.00 | 50 | 1019.5 |
| 20260507062704 | 64 | 90 | 0.0 | 5.0 | 0.00 | 0.00 | 0.00 | 51 | 1019.5 |
| 20260507061808 | 64 | 46 | 1.0 | 5.0 | 0.00 | 0.00 | 0.00 | 51 | 1019.5 |
| 20260507060905 | 64 | 20 | 2.0 | 5.0 | 0.00 | 0.00 | 0.00 | 50 | 1019.6 |
| 20260507060004 | 64 | 61 | 1.0 | 7.0 | 0.00 | 0.00 | 0.00 | 53 | 1019.6 |
| 20260507055405 | 63 | 55 | 1.0 | 7.0 | 0.00 | 0.00 | 0.00 | 52 | 1019.5 |
| 20260507054504 | 63 | 47 | 1.0 | 4.0 | 0.00 | 0.00 | 0.00 | 52 | 1019.4 |
| 20260507053605 | 63 | 42 | 1.0 | 5.0 | 0.00 | 0.00 | 0.00 | 53 | 1019.4 |
| 20260507052703 | 62 | 45 | 1.0 | 5.0 | 0.00 | 0.00 | 0.00 | 53 | 1019.5 |
| 20260507051805 | 62 | 42 | 1.0 | 5.0 | 0.00 | 0.00 | 0.00 | 51 | 1019.4 |
| 20260507050905 | 63 | 34 | 0.0 | 5.0 | 0.00 | 0.00 | 0.00 | 53 | 1019.4 |
| 20260507050004 | 62 | 354 | 0.0 | 2.0 | 0.00 | 0.00 | 0.00 | 54 | 1019.3 |
| 20260507045405 | 61 | 333 | 0.0 | 1.0 | 0.00 | 0.00 | 0.00 | 55 | 1019.2 |
| 20260507044503 | 60 | 334 | 1.0 | 4.0 | 0.00 | 0.00 | 0.00 | 54 | 1019.2 |
| 20260507043605 | 60 | 319 | 0.0 | 3.0 | 0.00 | 0.00 | 0.00 | 55 | 1019.2 |
| 20260507042703 | 60 | 0 | 0.0 | 0.0 | 0.00 | 0.00 | 0.00 | 57 | 1019.2 |
| 20260507041805 | 59 | 0 | 0.0 | 0.0 | 0.00 | 0.00 | 0.00 | 59 | 1019.1 |
| 20260507040905 | 58 | 334 | 0.0 | 1.0 | 0.00 | 0.00 | 0.00 | 61 | 1019.1 |
| 20260507040004 | 57 | 0 | 0.0 | 0.0 | 0.00 | 0.00 | 0.00 | 62 | 1019.0 |
| 20260507035405 | 56 | 0 | 0.0 | 0.0 | 0.00 | 0.00 | 0.00 | 64 | 1019.0 |
| 20260507034503 | 55 | 0 | 0.0 | 0.0 | 0.00 | 0.00 | 0.00 | 67 | 1018.9 |
| 20260507033605 | 55 | 323 | 0.0 | 3.0 | 0.00 | 0.00 | 0.00 | 68 | 1018.8 |
| 20260507032703 | 54 | 322 | 0.0 | 4.0 | 0.00 | 0.00 | 0.00 | 69 | 1018.7 |
| 20260507031805 | 54 | 322 | 0.0 | 3.0 | 0.00 | 0.00 | 0.00 | 69 | 1018.6 |
| 20260507030903 | 53 | 321 | 1.0 | 4.0 | 0.00 | 0.00 | 0.00 | 69 | 1018.6 |
| 20260507030004 | 53 | 323 | 0.0 | 3.0 | 0.00 | 0.00 | 0.00 | 70 | 1018.6 |
| 20260507025403 | 53 | 327 | 0.0 | 2.0 | 0.00 | 0.00 | 0.00 | 70 | 1018.6 |
| 20260507024717 | 53 | 0 | 0.0 | 0.0 | 0.00 | 0.00 | 0.00 | 70 | 1018.6 |
| 20260507023603 | 53 | 0 | 0.0 | 0.0 | 0.00 | 0.00 | 0.00 | 70 | 1018.5 |
| 20260507022705 | 54 | 0 | 0.0 | 0.0 | 0.00 | 0.00 | 0.00 | 69 | 1018.5 |
| 20260507021805 | 54 | 0 | 0.0 | 0.0 | 0.00 | 0.00 | 0.00 | 69 | 1018.5 |
| 20260507020905 | 54 | 0 | 0.0 | 0.0 | 0.00 | 0.00 | 0.00 | 68 | 1018.5 |
| 20260507020005 | 54 | 0 | 0.0 | 0.0 | 0.00 | 0.00 | 0.00 | 68 | 1018.4 |
| 20260507015403 | 54 | 0 | 0.0 | 0.0 | 0.00 | 0.00 | 0.00 | 68 | 1018.4 |
| 20260507014503 | 54 | 0 | 0.0 | 0.0 | 0.00 | 0.00 | 0.00 | 68 | 1018.4 |
| 20260507013604 | 54 | 0 | 0.0 | 0.0 | 0.00 | 0.00 | 0.00 | 68 | 1018.5 |
| 20260507012705 | 54 | 0 | 0.0 | 0.0 | 0.00 | 0.00 | 0.00 | 68 | 1018.4 |
| 20260507011805 | 54 | 0 | 0.0 | 0.0 | 0.00 | 0.00 | 0.00 | 68 | 1018.4 |
| 20260507010905 | 54 | 0 | 0.0 | 0.0 | 0.00 | 0.00 | 0.00 | 68 | 1018.5 |
| 20260507010005 | 54 | 0 | 0.0 | 0.0 | 0.00 | 0.00 | 0.00 | 67 | 1018.5 |
| 20260507005403 | 55 | 0 | 0.0 | 0.0 | 0.00 | 0.00 | 0.00 | 67 | 1018.5 |
| 20260507004505 | 55 | 0 | 0.0 | 0.0 | 0.00 | 0.00 | 0.00 | 66 | 1018.5 |
| 20260507003605 | 55 | 0 | 0.0 | 0.0 | 0.00 | 0.00 | 0.00 | 65 | 1018.6 |
| 20260507002705 | 55 | 0 | 0.0 | 0.0 | 0.00 | 0.00 | 0.00 | 65 | 1018.6 |
| 20260507001805 | 55 | 324 | 0.0 | 4.0 | 0.00 | 0.00 | 0.00 | 64 | 1018.6 |
| 20260507001118 | 55 | 313 | 0.0 | 4.0 | 0.00 | 0.00 | 0.00 | 65 | 1018.5 |
| 20260507000005 | 54 | 360 | 0.0 | 2.0 | 0.00 | 0.00 | 0.00 | 66 | 1018.5 |
| 20260506235405 | 54 | 0 | 0.0 | 0.0 | 0.00 | 0.00 | 0.00 | 67 | 1018.5 |
| 20260506234505 | 54 | 0 | 0.0 | 0.0 | 0.00 | 0.00 | 0.00 | 68 | 1018.7 |
| 20260506233817 | 54 | 307 | 0.0 | 1.0 | 0.00 | 0.00 | 0.00 | 69 | 1018.6 |
| 20260506232705 | 54 | 295 | 0.0 | 4.0 | 0.00 | 0.00 | 0.00 | 70 | 1018.6 |
| 20260506231803 | 54 | 300 | 0.0 | 8.0 | 0.00 | 0.00 | 0.00 | 73 | 1018.5 |
| 20260506230905 | 54 | 293 | 1.0 | 6.0 | 0.00 | 0.00 | 0.00 | 73 | 1018.7 |
| 20260506230004 | 54 | 0 | 0.0 | 0.0 | 0.00 | 0.00 | 0.00 | 75 | 1018.7 |
| 20260506225618 | 54 | 0 | 0.0 | 0.0 | 0.00 | 0.00 | 0.00 | 75 | 1018.7 |
| 20260506224503 | 55 | 0 | 0.0 | 0.0 | 0.00 | 0.00 | 0.00 | 75 | 1018.5 |
| 20260506223605 | 55 | 273 | 0.0 | 5.0 | 0.00 | 0.00 | 0.00 | 75 | 1018.5 |
| 20260506222703 | 55 | 234 | 0.0 | 6.0 | 0.00 | 0.00 | 0.00 | 76 | 1018.7 |
| 20260506221803 | 55 | 214 | 0.0 | 4.0 | 0.00 | 0.00 | 0.00 | 76 | 1018.7 |
| 20260506220905 | 55 | 116 | 0.0 | 3.0 | 0.00 | 0.00 | 0.00 | 77 | 1018.7 |
| 20260506220006 | 55 | 114 | 0.0 | 3.0 | 0.00 | 0.00 | 0.00 | 77 | 1018.7 |
| 20260506215404 | 55 | 110 | 0.0 | 2.0 | 0.00 | 0.00 | 0.00 | 77 | 1018.8 |
| 20260506214505 | 55 | 132 | 0.0 | 4.0 | 0.00 | 0.00 | 0.00 | 77 | 1018.9 |
| 20260506213603 | 55 | 148 | 0.0 | 4.0 | 0.00 | 0.00 | 0.00 | 77 | 1018.9 |
| 20260506212703 | 55 | 80 | 0.0 | 3.0 | 0.00 | 0.00 | 0.00 | 77 | 1019.0 |
| 20260506211805 | 55 | 24 | 0.0 | 3.0 | 0.00 | 0.00 | 0.00 | 77 | 1018.9 |
| 20260506210906 | 55 | 77 | 0.0 | 4.0 | 0.00 | 0.00 | 0.00 | 77 | 1019.0 |
| 20260506210012 | 56 | 103 | 1.0 | 8.0 | 0.00 | 0.00 | 0.00 | 77 | 1019.0 |
| 20260506205404 | 56 | 100 | 1.0 | 7.0 | 0.00 | 0.00 | 0.00 | 77 | 1018.9 |
| 20260506204505 | 56 | 93 | 1.0 | 7.0 | 0.00 | 0.00 | 0.00 | 76 | 1018.8 |
| 20260506203603 | 56 | 102 | 0.0 | 3.0 | 0.00 | 0.00 | 0.00 | 76 | 1018.8 |
| 20260506202916 | 56 | 80 | 0.0 | 8.0 | 0.00 | 0.00 | 0.00 | 75 | 1018.8 |
| 20260506202013 | 56 | 82 | 0.0 | 6.0 | 0.00 | 0.00 | 0.00 | 75 | 1018.9 |
| 20260506200905 | 56 | 290 | 0.0 | 8.0 | 0.00 | 0.00 | 0.00 | 74 | 1018.8 |
| 20260506200004 | 56 | 293 | 1.0 | 7.0 | 0.00 | 0.00 | 0.00 | 74 | 1018.8 |
| 20260506195405 | 56 | 281 | 2.0 | 8.0 | 0.00 | 0.00 | 0.00 | 74 | 1018.9 |
| 20260506194505 | 56 | 306 | 1.0 | 8.0 | 0.00 | 0.00 | 0.00 | 74 | 1018.9 |
| 20260506193605 | 56 | 323 | 2.0 | 7.0 | 0.00 | 0.00 | 0.00 | 75 | 1019.0 |
| 20260506192703 | 57 | 62 | 0.0 | 3.0 | 0.00 | 0.00 | 0.00 | 75 | 1019.0 |
| 20260506191805 | 57 | 101 | 0.0 | 4.0 | 0.00 | 0.00 | 0.00 | 75 | 1019.1 |
| 20260506191116 | 57 | 301 | 0.0 | 4.0 | 0.00 | 0.00 | 0.00 | 74 | 1019.1 |
| 20260506190004 | 57 | 299 | 1.0 | 6.0 | 0.00 | 0.00 | 0.00 | 74 | 1019.1 |
| 20260506185403 | 57 | 315 | 1.0 | 6.0 | 0.00 | 0.00 | 0.00 | 73 | 1019.1 |
| 20260506184504 | 57 | 292 | 1.0 | 7.0 | 0.00 | 0.00 | 0.00 | 73 | 1019.1 |
| 20260506183604 | 58 | 334 | 1.0 | 8.0 | 0.00 | 0.00 | 0.00 | 72 | 1019.0 |
| 20260506182703 | 58 | 348 | 3.0 | 8.0 | 0.00 | 0.00 | 0.00 | 72 | 1019.0 |
| 20260506182014 | 58 | 338 | 1.0 | 7.0 | 0.00 | 0.00 | 0.00 | 72 | 1018.9 |
| 20260506181117 | 58 | 338 | 2.0 | 8.0 | 0.00 | 0.00 | 0.00 | 71 | 1018.8 |
| 20260506180006 | 58 | 328 | 2.0 | 10.0 | 0.00 | 0.00 | 0.00 | 71 | 1018.6 |
| 20260506175616 | 58 | 318 | 2.0 | 10.0 | 0.00 | 0.00 | 0.00 | 71 | 1018.7 |
| 20260506174505 | 58 | 342 | 3.0 | 8.0 | 0.00 | 0.00 | 0.00 | 70 | 1018.6 |
| 20260506173815 | 59 | 338 | 4.0 | 11.0 | 0.00 | 0.00 | 0.00 | 69 | 1018.4 |
| 20260506172703 | 59 | 342 | 4.0 | 11.0 | 0.00 | 0.00 | 0.00 | 68 | 1018.3 |
| 20260506171805 | 59 | 335 | 4.0 | 12.0 | 0.00 | 0.00 | 0.00 | 67 | 1018.2 |
| 20260506170903 | 59 | 336 | 4.0 | 12.0 | 0.00 | 0.00 | 0.00 | 66 | 1018.2 |
| 20260506170005 | 60 | 334 | 5.0 | 10.0 | 0.00 | 0.00 | 0.00 | 66 | 1018.1 |
| 20260506165405 | 60 | 339 | 4.0 | 11.0 | 0.00 | 0.00 | 0.00 | 65 | 1017.9 |